Preview of NWS' New Version of Forecast
This preview is not operational and should not be used for support decisions.

Regional Weather Roundup (RWR)

Issued by National Weather Service (NWS)

                            
000
ASUS45 KBOU 151510
RWRCO 

WEATHER ROUNDUP FOR COLORADO
NATIONAL WEATHER SERVICE DENVER/BOULDER CO
900 AM MDT SAT JUN 15 2019

NOTE: "FAIR" INDICATES FEW OR NO CLOUDS BELOW 12000 FEET WITH NO
SIGNIFICANT WEATHER AND/OR OBSTRUCTIONS TO VISIBILITY.

COZ001>005-013-030-031-151600-
...NORTHWEST COLORADO...
  
CITY           SKY/WX    TMP DP  RH WIND       PRES   REMARKS
CRAIG          FAIR      57  47  69 NE3       30.14S                  
HAYDEN         FAIR      55  47  74 E5        30.17S                  
MEEKER         FAIR      53  43  68 CALM      30.15R                  
RANGELY        FAIR      61  46  57 CALM      30.10S                  
RABBIT EARS PA NOT AVBL                                               
STEAMBOAT SPGS FAIR      50  48  93 CALM      30.17S                  
WALDEN         FAIR      52  43  71 CALM      30.24R                  
$$

COZ006>008-011-151600-
...WEST CENTRAL VALLEYS...
  
CITY           SKY/WX    TMP DP  RH WIND       PRES   REMARKS
GRAND JUNCTION FAIR      70  44  39 NW3       30.04R                  
MONTROSE       FAIR      64  39  39 CALM      30.11R                  
EAGLE          FAIR      56  39  53 CALM      30.19R                  
RIFLE          FAIR      60  42  51 NE3       30.10S                  
DELTA          FAIR      65  40  40 CALM      30.08R                  
NUCLA          FAIR      63  36  36 CALM      30.11S                  
$$

COZ017>023-064>068-151600-
...SOUTHWEST COLORADO...
  
CITY           SKY/WX    TMP DP  RH WIND       PRES   REMARKS
DURANGO        FAIR      61  32  33 CALM      30.10R                  
CORTEZ         FAIR      67  41  38 CALM      30.07R                  
PAGOSA SPRINGS FAIR      60  29  30 CALM      30.17S                  
TELLURIDE      FAIR      55  34  44 CALM      30.26S                  
WOLF CREEK PAS FAIR      45  27  49 CALM      30.45S                  
$$

COZ009-010-012-014-032>034-037-058>063-151600-
...CENTRAL COLORADO...
  
CITY           SKY/WX    TMP DP  RH WIND       PRES   REMARKS
ASPEN          FAIR      55  38  52 CALM      30.18F                  
BUENA VISTA    FAIR      56  35  45 N5        30.20S                  
COPPER MTN     FAIR      45  34  65 N5        30.42R                  
BERTHOUD PASS  CLOUDY    34  27  75 SE12G18   30.44S WCI  25          
COTTONWOOD PAS PTSUNNY   55  32  41 CALM      30.30S                  
GUNNISON       FAIR      53  36  52 CALM      30.20F                  
GRANBY         CLOUDY    45  42  87 CALM      30.25S                  
KREMMLING      FAIR      50  41  71 CALM      30.22S                  
LEADVILLE      FAIR      50  32  50 CALM      30.29S                  
MONARCH PASS   CLOUDY    41  34  75 MISG      30.51S                  
SALIDA         PTSUNNY   60  36  41 CALM      30.25F                  
SUNLIGHT       FAIR      45  32  61 CALM      30.38R                  
WILKERSON PASS CLOUDY    46  32  57 CALM      30.41R                  
$$

COZ069>075-151600-
...SAN LUIS VALLEY/SANGRE DE CRISTO MOUNTAINS...
  
CITY           SKY/WX    TMP DP  RH WIND       PRES   REMARKS
ALAMOSA        FAIR      61  33  35 MISG      30.16R                  
DEL NORTE      FAIR      59  33  36 CALM      30.19R                  
LA VETA PASS   NOT AVBL                                               
SAGUACHE       FAIR      63  36  36 CALM      30.17S                  
$$

COZ035-036-038>040-151600-
...NORTHERN COLORADO FRONT RANGE...
  
CITY           SKY/WX    TMP DP  RH WIND       PRES   REMARKS
DENVER INTL AP FAIR      70  42  36 N13       30.07R                  
AURORA         PTSUNNY   70  44  38 N12G17    30.08R                  
FRONT RANGE AP MOSUNNY   70  45  40 N8        30.08R                  
ERIE MUNI ARPT FAIR      67  46  46 CALM      30.11S                  
BOULDER MUN AP FAIR      68  41  37 CALM      30.07R                  
CENTENNIAL     FAIR      69  44  40 NW8       30.09R                  
BROOMFIELD     MOSUNNY   68  43  40 VRB5      30.09R                  
FORT COLLINS     N/A     68  48  48 CALM      30.07R                  
LONGMONT       FAIR      71  48  44 N3        30.08R                  
$$

COZ041-046-047-076>085-087-088-151600-
...PIKES PEAK/PALMER DIVIDE AND SOUTHERN FOOTHILLS...
  
CITY           SKY/WX    TMP DP  RH WIND       PRES   REMARKS
COLO. SPRINGS  FAIR      65  48  54 SW6       30.11R                  
A. F. ACADEMY  MOSUNNY   68  38  33 NE12      30.10F                  
SCHRIEVER AFB  NOT AVBL                                               
CHEYENNE MTN   NOT AVBL                                               
ELLICOTT         N/A    N/A N/A N/A NW7       30.09R                  
FALCON         FAIR      67  36  31 NE12G21   30.15R                  
FORT CARSON    NOT AVBL                                               
LIMON          FAIR      66  49  54 N15       30.05R                  
MONUMENT HILL  FAIR      63  41  45 N9        30.17R                  
CANON CITY     FAIR      72  45  37 CALM      30.05                   
WALSENBURG     NOT AVBL                                               
TRINIDAD       FAIR      70  46  42 VRB5      30.07R                  
$$

COZ042>045-048>051-090-091-151600-
...NORTHEAST COLORADO...
  
CITY           SKY/WX    TMP DP  RH WIND       PRES   REMARKS
GREELEY ARPT   FAIR      71  47  42 N9        30.05R                  
AKRON          FAIR      65  51  60 NW14      30.01R                  
BURLINGTON     FAIR      71  51  49 N18G26    29.96S                  
WRAY           FAIR      72  52  49 NW14      29.96R                  
YUMA           FAIR      68  41  37 NW15      29.98R                  
STERLING       FAIR      70  52  52 N14       29.98R                  
HOLYOKE        FAIR      72  55  56 N10       29.95S                  
FORT MORGAN    FAIR      69  47  44 N10       30.03R                  
$$

COZ086-089-092>099-151600-
...SOUTHEAST COLORADO...
  
CITY           SKY/WX    TMP DP  RH WIND       PRES   REMARKS
PUEBLO         FAIR      69  49  48 VRB3      30.02R                  
LA JUNTA       FAIR      74  49  41 VRB6      29.99R                  
LAMAR          FAIR      76  51  41 N15       29.94R                  
SPRINGFIELD      N/A     69  52  54 N15       29.97R                  
$$